Wetbulb
44.56 39.58 39.55 44.60 46.81 46.93 45.98 44.57 43.63 46.68 50.54 48.57 48.88 48.37 49.85 52.38 53.09 52.04 53.65 54.10 55.09 56.12 57.67 58.92 60.57 63.12 73.54 77.40 76.33 76.33 74.99 75.82 76.41 75.71 76.02 75.12 74.45 76.30 76.80 77.39 76.97 77.39 77.40 76.57
42.64 37.06 41.97 45.41 46.41 45.71 45.47 43.97 44.47 47.68 49.98 49.70 49.40 48.67 50.85 51.86 52.62 53.13 53.89 54.60 55.20 56.25 57.87 58.60 61.73 64.21 73.99 76.43 74.78 75.93 74.60 75.61 75.17 74.84 76.05 74.98 74.61 74.75 75.19 74.12 75.05 76.78 75.97 75.96
38.48 42.00 44.59 42.58 42.00 42.29 43.81 43.11 44.23 44.64 49.01 50.31 49.30 47.74 49.25 51.29 53.04 53.94 54.25 55.59 56.20 56.39 57.31 58.90 59.70 67.23 74.07 71.42 68.16 72.41 72.37 74.39 74.11 74.27 74.68 75.10 75.25 75.82 73.23 74.47 75.32 75.90 75.32 75.07
41.01 44.16 42.88 41.95 40.61 42.52 39.49 46.00 46.08 45.73 45.22 42.19 49.23 40.74 48.41 49.62 51.14 53.10 53.83 54.54 55.43 56.82 58.32 58.82 60.68 67.53 72.41 73.21 69.66 67.24 71.01 73.32 73.23 73.68 74.35 74.37 72.64 71.15 72.87 73.27 74.57 74.78 75.04 74.78
38.43 41.40 41.48 39.94 41.60 43.64 41.49 46.60 45.49 45.41 44.55 45.11 45.69 42.13 45.80 50.01 48.94 51.20 53.49 54.22 55.49 56.70 57.69 57.38 61.22 66.41 68.88 72.51 74.22 72.65 73.58 72.28 73.96 73.53 74.17 72.98 72.99 73.31 73.66 73.75 73.83 74.57 74.72 72.69
41.73 46.17 44.46 43.46 45.87 45.64 45.65 43.85 44.71 45.47 44.14 37.64 43.79 43.29 43.25 46.37 49.26 51.93 54.12 54.39 55.25 56.01 57.39 57.87 61.72 64.47 66.94 70.24 72.88 73.90 74.09 73.30 73.32 73.04 71.99 73.73 73.20 72.88 72.08 71.46 71.70 71.77 71.96 72.62
38.36 40.95 44.43 45.99 42.22 44.95 44.78 41.01 35.20 33.17 34.80 34.52 44.30 43.17 45.19 49.89 51.83 53.30 53.84 54.71 55.57 56.74 57.13 57.90 59.39 61.08 63.60 67.43 71.84 72.97 71.26 70.56 70.67 71.55 73.10 73.77 74.43 72.88 72.43 71.72 70.26 71.10 69.97 70.86
32.55 33.38 42.12 45.74 43.31 41.56 40.89 41.64 36.07 28.66 31.25 35.65 43.95 40.40 44.90 51.87 54.12 55.19 55.86 55.74 56.37 56.57 57.02 57.69 58.02 60.70 61.54 65.66 71.51 70.63 69.81 69.59 69.62 70.97 72.46 73.58 74.38 72.30 71.29 72.61 71.23 70.22 69.58 68.94
35.24 35.34 44.24 45.11 46.43 44.43 40.89 37.43 44.40 39.55 41.52 38.07 41.39 44.97 48.72 51.66 53.09 54.70 54.69 55.68 55.22 56.57 56.84 58.03 58.69 60.63 67.77 70.54 69.51 69.61 69.71 70.11 70.54 69.58 70.27 70.62 71.12 71.15 69.68 70.27 70.04 67.81 68.07 67.13
38.99 33.40 41.72 43.52 44.59 46.62 43.15 45.46 38.06 40.29 32.07 32.34 39.12 40.71 41.95 47.68 50.64 53.46 56.91 56.20 55.93 56.51 56.88 58.44 64.36 67.98 68.58 68.40 68.17 68.93 68.64 67.93 66.96 67.52 66.86 66.56 67.00 67.75 67.39 66.33 65.57 65.52 65.61 65.58
40.48 37.38 36.91 39.33 39.50 40.19 41.77 38.87 42.57 43.38 40.54 34.92 35.35 40.26 49.26 50.12 52.81 54.94 55.92 57.50 60.07 61.90 63.25 64.06 64.85 65.76 65.79 66.13 66.81 66.73 66.85 65.84 65.72 64.83 64.54 64.15 63.76 63.83 63.64 62.97 62.70 62.54 62.52 62.55
38.73 36.24 33.61 36.32 43.35 46.65 44.84 40.39 41.87 37.34 36.58 40.60 40.99 42.85 54.70 53.28 56.41 55.82 54.21 56.42 59.51 61.46 61.98 62.97 63.58 64.06 64.58 65.01 65.28 65.52 63.57 62.21 61.73 61.53 61.34 61.09 60.99 60.29 59.54 59.08 59.17 59.41 58.94 59.16
37.62 34.46 32.35 36.07 40.38 44.35 41.54 43.02 43.24 45.45 44.17 39.67 38.22 42.64 51.94 52.96 52.36 53.46 53.78 56.21 57.99 59.40 60.32 60.79 62.14 62.58 62.63 62.47 61.53 60.77 60.22 59.48 60.50 60.13 59.18 58.73 58.21 57.48 57.08 57.12 57.29 56.93 57.29 56.85
40.36 35.33 33.03 32.37 35.23 41.56 39.07 40.08 43.80 43.05 37.79 39.83 40.01 44.42 46.88 48.15 48.54 50.95 53.28 55.17 56.32 57.84 58.64 59.14 59.50 59.49 59.06 58.77 58.56 58.55 59.13 59.61 59.17 58.33 57.70 57.06 57.21 57.08 56.99 57.55 57.34 57.39 57.26 56.85
37.02 33.01 35.66 37.83 38.95 40.51 40.63 40.43 42.45 41.56 42.50 39.21 43.40 44.83 46.14 47.15 48.23 50.67 52.72 54.09 54.85 55.36 55.86 56.18 56.44 56.15 56.33 56.51 57.62 57.92 57.86 57.82 57.48 56.26 55.92 55.87 56.27 56.30 56.26 56.12 56.46 56.99 56.81 56.37
35.64 32.17 34.91 35.74 41.06 42.62 39.80 42.15 42.84 44.46 41.93 41.72 46.06 44.88 48.61 49.54 50.42 50.26 50.50 51.09 51.11 52.00 52.90 53.49 53.81 53.70 54.19 54.95 54.65 55.09 55.16 55.85 56.05 55.04 54.06 55.07 54.90 55.29 55.25 55.50 55.38 55.18 54.52 53.97
32.59 34.22 34.20 36.99 42.94 42.56 37.42 41.85 42.79 44.53 45.54 44.42 41.15 45.04 47.74 47.52 48.21 48.75 49.21 49.56 49.74 50.58 51.36 51.54 52.28 53.14 54.12 54.49 54.76 53.29 53.50 53.90 53.26 52.79 52.99 53.24 53.85 53.50 53.32 53.19 52.64 52.45 52.00 52.42
35.02 34.02 37.26 38.72 40.88 32.01 42.87 48.18 46.87 45.27 46.65 47.60 47.09 46.59 48.13 48.35 49.38 50.32 50.99 49.44 48.73 49.12 49.60 50.49 51.27 52.56 52.85 52.83 52.73 53.09 53.33 52.75 52.44 52.20 52.28 52.44 52.17 51.78 52.19 51.71 50.93 50.77 50.39 49.47
39.22 36.25 36.69 36.48 36.51 40.17 43.87 43.93 45.28 44.23 43.65 47.52 44.85 45.48 46.10 46.75 46.85 46.36 48.91 49.56 48.89 49.01 49.36 50.13 51.73 51.97 51.94 52.03 52.76 52.54 51.92 52.01 51.58 50.99 51.24 51.46 51.15 50.33 50.10 49.55 49.54 48.94 48.19 47.78
41.62 39.59 38.30 40.49 35.35 33.34 43.75 47.45 49.38 48.12 36.61 46.26 45.52 44.45 44.22 45.12 38.13 41.16 46.83 47.90 48.05 49.33 49.92 49.85 50.16 50.75 51.16 51.61 52.45 51.26 50.60 50.63 50.09 50.12 50.41 51.10 50.12 49.06 48.15 47.83 47.42 47.16 47.37 47.01
37.92 36.29 34.85 33.78 35.10 41.26 48.26 49.46 51.18 39.84 37.36 45.89 46.44 45.80 44.45 40.00 42.79 44.37 46.42 46.37 48.55 49.15 48.96 49.63 49.24 48.77 49.58 50.60 50.62 49.54 49.73 48.98 50.10 50.04 50.12 49.74 50.40 48.63 47.83 46.83 46.87 46.42 45.78 45.82
36.54 36.51 37.19 36.71 36.51 35.46 49.11 50.87 45.01 45.80 47.14 46.72 43.31 41.05 39.98 41.28 42.26 42.27 43.72 45.00 46.56 46.72 46.82 47.28 46.99 47.41 48.77 49.63 48.98 47.89 47.93 49.05 48.88 48.72 48.05 48.10 47.76 47.07 46.44 46.16 45.73 44.58 44.35 43.47
35.84 40.27 38.05 38.75 38.64 46.81 52.65 50.51 50.32 49.54 44.91 42.27 41.27 41.41 40.39 39.05 39.38 40.80 40.99 42.76 43.82 44.48 44.64 45.59 45.16 45.81 46.93 48.06 48.07 45.47 46.81 47.60 46.84 46.63 46.74 46.61 46.84 45.52 45.02 43.25 41.46 40.34 41.11 40.17
38.57 42.26 40.73 40.93 40.59 48.28 51.38 52.37 51.50 48.22 43.71 42.75 42.03 40.93 40.23 37.97 38.88 39.64 40.97 42.39 43.56 44.72 45.51 46.57 45.92 44.77 44.70 46.83 46.47 46.60 46.26 45.89 45.48 45.63 45.57 46.22 45.21 43.44 42.82 41.70 39.29 36.62 35.19 35.63
35.69 37.29 39.14 39.66 42.29 46.54 48.31 48.81 47.70 45.57 43.76 42.09 41.58 40.90 39.75 39.69 39.70 41.15 42.67 43.11 43.85 45.07 46.14 46.07 45.39 44.61 44.74 45.74 45.81 45.84 45.74 45.23 43.57 44.34 43.92 43.13 45.00 43.05 40.17 37.79 36.96 35.89 33.86 33.26
36.74 36.78 36.95 35.56 42.47 43.13 43.00 46.58 47.10 44.10 41.59 40.32 39.10 39.21 40.62 41.30 41.59 42.61 42.26 43.68 44.85 45.69 46.31 45.41 45.32 44.58 44.25 44.53 45.16 45.88 44.85 43.77 42.71 42.61 42.93 42.62 44.06 43.47 41.47 38.73 35.99 36.18 35.56 34.66
MSLP
1000.49 1000.60 999.11 997.58 997.28 996.69 995.69 994.72 993.97 993.50 992.83 993.10 992.53 993.30 993.49 993.77 993.62 994.02 994.16 995.02 995.57 995.84 995.95 996.46 996.80 997.19 997.29 997.68 998.99 1000.49 1001.68 1003.12 1003.64 1004.22 1004.90 1005.70 1006.27 1006.53 1006.70 1006.99 1007.63 1008.04 1008.44 1008.88
999.60 999.03 999.00 998.52 998.07 997.37 996.30 995.09 993.61 992.89 992.70 992.49 992.15 992.01 992.63 993.07 993.06 993.36 993.74 994.22 994.80 995.54 995.51 995.89 996.39 996.97 997.18 998.83 1000.05 1001.13 1001.91 1003.22 1004.01 1004.84 1005.53 1006.12 1006.43 1007.01 1007.26 1007.30 1007.55 1007.83 1008.32 1008.79
998.89 998.02 998.30 998.48 997.77 996.65 995.68 994.92 993.90 992.88 991.78 991.67 991.66 991.32 991.66 992.30 992.68 993.02 993.17 993.60 993.96 994.55 995.13 995.52 996.09 996.57 997.47 999.20 1000.87 1001.81 1003.25 1004.12 1004.66 1005.09 1005.82 1006.32 1006.42 1007.07 1007.62 1007.60 1007.71 1008.04 1008.35 1008.64
999.33 997.61 996.76 996.78 996.79 996.31 994.80 994.65 994.35 993.35 992.11 990.74 990.74 990.46 990.94 991.81 992.29 992.24 992.39 992.80 993.28 993.77 994.57 995.00 995.53 996.26 997.28 998.89 1000.31 1000.82 1002.74 1004.80 1004.88 1004.95 1005.70 1006.14 1006.35 1006.84 1007.18 1007.36 1007.69 1007.96 1008.35 1008.71
999.60 998.04 997.11 996.34 995.33 995.47 994.54 994.02 994.17 993.92 992.71 991.69 990.40 991.00 990.43 991.20 991.47 990.93 991.15 992.03 992.67 993.30 993.78 994.37 995.04 996.02 997.10 998.61 999.76 1001.81 1003.57 1004.04 1004.38 1004.96 1005.59 1006.15 1006.23 1006.60 1006.71 1007.04 1007.54 1007.91 1008.59 1009.08
999.01 998.01 996.86 996.78 995.39 994.68 994.66 994.44 993.95 993.93 993.27 991.96 991.00 990.56 990.40 989.97 989.43 989.93 990.58 991.14 992.15 992.81 993.43 994.12 994.98 996.13 996.90 998.51 1000.02 1001.97 1003.14 1003.80 1004.59 1005.39 1005.96 1006.03 1006.27 1006.23 1006.35 1006.82 1007.47 1008.10 1008.73 1009.20
999.78 997.82 996.98 997.27 996.22 995.29 994.46 993.92 993.48 993.58 992.62 992.07 991.73 990.25 989.18 989.14 988.83 988.88 989.46 990.39 991.48 992.52 993.30 994.01 994.83 996.05 996.95 998.09 999.93 1002.30 1003.76 1004.62 1005.41 1005.85 1005.97 1006.05 1006.08 1006.17 1006.13 1006.59 1007.48 1008.18 1008.95 1009.45
1000.40 997.36 996.36 996.31 995.28 994.64 994.28 993.42 992.47 992.65 992.70 992.16 991.28 988.84 988.19 988.23 988.17 987.53 988.46 989.72 991.08 992.36 993.04 993.87 994.76 995.86 996.95 998.12 999.96 1002.32 1003.77 1004.77 1005.59 1005.93 1006.00 1005.92 1005.77 1006.06 1006.66 1007.17 1007.75 1008.44 1009.27 1010.03
1000.31 999.05 997.71 996.33 995.15 994.72 993.42 993.09 992.76 992.90 992.61 991.75 990.72 989.74 989.40 988.42 988.70 988.29 988.42 989.62 991.12 992.35 993.21 993.93 994.88 995.76 997.29 999.50 1001.22 1002.47 1003.56 1004.57 1005.48 1006.07 1006.15 1006.27 1006.56 1006.82 1007.79 1008.35 1008.72 1009.32 1010.04 1010.51
1001.67 1000.05 998.23 997.67 997.20 994.03 993.07 992.77 992.58 992.69 992.05 991.13 990.31 989.84 989.16 988.95 989.61 990.42 991.15 990.99 991.90 992.81 993.71 994.38 995.88 997.47 999.26 1000.87 1002.33 1003.42 1004.34 1005.17 1006.20 1006.88 1007.07 1007.40 1007.65 1008.22 1008.84 1009.37 1009.78 1010.30 1010.65 1010.86
1002.35 1001.33 1000.16 998.48 996.75 994.99 993.10 992.59 992.49 992.87 992.82 991.85 990.39 989.76 989.90 989.50 990.28 992.17 994.30 994.97 995.03 995.00 995.92 996.95 998.37 999.62 1000.78 1002.37 1003.49 1004.49 1005.08 1006.01 1007.16 1007.85 1008.16 1008.53 1008.89 1009.54 1010.00 1010.43 1010.86 1011.05 1011.33 1011.62
1003.51 1002.75 1000.46 998.02 995.90 994.67 992.89 993.68 993.51 992.07 992.71 992.41 991.57 991.69 991.65 989.38 991.27 994.09 996.68 997.43 997.75 997.88 998.31 999.15 999.97 1000.86 1001.90 1003.08 1004.31 1004.93 1005.96 1007.21 1008.02 1008.66 1009.22 1009.70 1010.38 1010.84 1011.13 1011.34 1011.77 1011.84 1012.19 1012.34
1003.99 1002.90 1000.34 997.18 996.16 994.89 993.44 993.13 993.37 992.80 993.46 993.09 993.22 994.57 995.45 993.86 995.24 996.95 997.67 998.98 999.61 999.95 1000.18 1000.78 1001.41 1002.13 1003.02 1004.00 1004.89 1005.82 1007.17 1008.17 1008.86 1009.58 1010.44 1011.02 1011.41 1011.69 1011.95 1012.19 1012.32 1012.46 1012.58 1012.80
1004.48 1003.25 1001.66 998.81 997.52 995.78 994.45 993.20 992.73 993.20 993.63 994.00 995.19 996.74 997.88 997.75 998.09 999.00 999.65 1000.15 1000.76 1001.34 1001.59 1001.98 1002.48 1003.02 1003.90 1004.99 1006.13 1007.19 1008.04 1008.87 1009.72 1010.50 1011.08 1011.56 1011.87 1012.12 1012.27 1012.44 1012.62 1012.78 1012.97 1012.99
1004.51 1003.30 1000.98 998.84 997.40 995.54 994.17 994.58 993.75 993.46 994.35 995.49 995.77 997.43 998.85 999.65 1000.25 1000.25 1000.85 1001.34 1001.95 1002.70 1003.14 1003.28 1003.50 1004.26 1005.31 1006.67 1007.39 1008.07 1009.00 1009.82 1010.52 1011.01 1011.54 1011.96 1012.23 1012.58 1012.80 1012.96 1013.16 1013.27 1013.39 1013.49
1004.50 1003.01 1001.14 998.30 996.13 994.86 994.19 994.17 993.81 993.77 995.71 996.95 996.64 998.57 1000.05 1001.04 1001.64 1001.84 1002.26 1002.48 1003.12 1003.93 1004.39 1004.67 1005.12 1006.06 1007.26 1007.96 1008.73 1009.57 1010.20 1010.61 1011.07 1011.44 1011.93 1012.21 1012.60 1012.93 1013.09 1013.34 1013.72 1013.89 1014.26 1014.39
1003.74 1002.69 1000.15 996.26 994.49 993.57 992.99 992.81 994.17 994.88 995.96 996.51 998.70 999.90 1001.19 1002.22 1002.99 1003.15 1003.35 1004.17 1004.47 1005.25 1005.72 1006.33 1006.95 1007.59 1008.50 1009.35 1009.90 1010.45 1010.93 1011.36 1011.70 1012.00 1012.42 1012.90 1013.23 1013.60 1013.92 1014.35 1014.64 1014.78 1014.97 1015.14
1003.04 1002.04 999.86 996.35 994.45 993.76 992.27 991.91 993.20 995.51 996.50 998.64 1000.31 1000.49 1002.15 1003.00 1004.02 1004.57 1004.98 1005.30 1006.20 1006.71 1007.38 1007.94 1008.30 1009.30 1010.06 1010.58 1011.04 1011.35 1011.77 1012.10 1012.35 1012.77 1013.20 1013.56 1013.95 1014.35 1014.69 1014.93 1015.36 1015.48 1015.50 1015.65
1002.22 1001.65 999.77 997.38 995.74 994.19 993.12 995.09 994.72 996.93 999.36 1000.60 1001.42 1002.57 1003.38 1004.23 1004.83 1006.79 1006.73 1007.04 1007.69 1008.09 1008.69 1009.27 1010.15 1010.67 1011.15 1011.52 1011.86 1012.17 1012.48 1012.80 1013.26 1013.65 1014.03 1014.37 1014.82 1015.08 1015.48 1015.80 1016.06 1016.22 1016.13 1016.19
1001.12 1001.12 1000.38 997.94 996.56 994.92 995.59 996.59 997.04 998.52 1001.48 1002.69 1002.87 1004.36 1004.79 1004.92 1006.23 1008.65 1008.45 1008.57 1009.02 1009.57 1010.28 1010.88 1011.56 1011.91 1012.23 1012.56 1012.87 1013.05 1013.35 1013.79 1014.15 1014.66 1015.06 1015.23 1015.83 1016.14 1016.46 1016.69 1016.80 1017.04 1016.83 1016.70
1001.12 1000.82 1000.37 998.53 997.93 996.69 996.28 996.06 996.18 998.26 1003.33 1004.10 1004.44 1005.52 1006.76 1007.40 1008.43 1009.02 1009.32 1009.91 1010.46 1011.14 1011.68 1012.18 1012.79 1012.99 1013.31 1013.78 1013.93 1014.10 1014.52 1014.88 1015.32 1015.77 1016.13 1016.42 1016.39 1016.84 1017.17 1017.35 1017.45 1017.39 1017.34 1017.42
1002.77 1001.47 1000.46 1000.29 999.55 998.78 997.64 996.38 997.35 1000.83 1003.54 1005.12 1006.39 1007.19 1008.44 1009.34 1010.08 1010.56 1011.13 1011.49 1011.93 1012.32 1012.78 1013.37 1013.31 1013.64 1014.38 1014.75 1014.88 1015.52 1015.70 1016.11 1016.57 1016.91 1017.00 1017.20 1017.43 1017.57 1017.88 1018.08 1018.10 1018.16 1018.16 1018.17
1003.88 1003.23 1002.43 1001.77 1000.88 1000.26 998.90 998.74 1000.58 1002.02 1003.99 1006.61 1007.75 1009.05 1009.58 1010.84 1011.50 1012.20 1012.62 1012.64 1012.96 1013.24 1013.42 1013.80 1014.07 1014.64 1015.25 1015.87 1016.35 1016.73 1017.01 1017.25 1017.55 1017.64 1017.71 1017.95 1018.18 1018.42 1018.75 1019.08 1019.34 1019.47 1019.48 1019.29
1005.79 1004.69 1003.70 1002.86 1002.37 1001.54 1000.83 1001.29 1002.19 1003.53 1005.68 1007.88 1009.24 1010.24 1011.08 1012.11 1012.81 1013.05 1013.30 1013.26 1013.19 1013.42 1013.69 1014.36 1014.91 1015.59 1016.34 1016.82 1017.28 1017.57 1018.00 1018.35 1018.30 1018.24 1018.44 1018.51 1018.80 1019.40 1019.89 1020.21 1020.74 1021.11 1021.12 1021.00
1008.78 1007.35 1005.92 1004.82 1004.24 1003.50 1003.13 1003.57 1004.36 1006.03 1007.75 1009.45 1010.75 1011.80 1012.37 1012.73 1013.37 1013.31 1013.45 1013.63 1013.79 1014.07 1014.74 1015.43 1015.88 1016.42 1017.05 1017.46 1017.76 1018.30 1018.67 1018.87 1019.02 1019.05 1019.16 1019.35 1019.41 1020.02 1020.86 1021.64 1021.84 1022.08 1022.62 1022.61
1010.07 1008.99 1007.94 1007.20 1006.27 1005.58 1006.02 1005.99 1006.50 1007.65 1009.18 1010.48 1011.15 1013.19 1014.02 1013.68 1013.77 1014.31 1013.93 1014.00 1014.58 1015.12 1015.71 1016.23 1016.77 1017.15 1017.51 1017.76 1017.86 1018.49 1019.31 1019.70 1019.80 1019.78 1019.77 1019.91 1019.93 1020.41 1021.12 1021.73 1022.47 1023.05 1022.99 1022.83
Wind_Speed
27 19 22 30 29 29 27 26 31 24 21 27 25 24 22 23 18 16 20 22 20 21 19 18 15 12 14 9 12 12 12 12 10 6 5 5 4 3 1 4 8 5 3 5
20 23 28 26 26 29 30 29 28 23 26 24 25 26 22 22 23 16 19 19 20 20 16 14 12 13 15 14 12 10 8 11 8 7 6 4 4 2 2 2 3 5 5 4
25 24 27 27 27 29 29 28 27 27 24 27 25 25 26 23 19 21 17 16 18 20 20 17 16 14 15 15 13 7 5 10 9 10 5 5 4 4 3 5 3 4 6 5
23 27 26 28 28 28 28 30 29 26 25 16 25 16 18 18 21 22 21 19 17 18 20 17 17 14 11 18 21 18 18 17 9 11 8 10 6 6 6 6 6 4 1 3
12 15 22 24 24 29 26 25 27 29 24 22 19 14 16 21 23 25 23 19 18 18 18 17 19 15 12 12 13 23 17 13 12 10 9 8 8 7 6 5 7 6 4 2
24 24 17 18 19 22 26 26 22 25 18 17 20 18 18 17 25 20 21 21 18 18 16 16 20 17 14 13 14 15 15 13 12 10 8 10 9 8 9 10 7 6 4 3
16 25 20 20 20 19 18 23 14 14 16 13 22 21 14 23 25 24 23 23 22 17 18 15 17 19 16 16 19 17 15 14 11 10 7 9 6 8 7 7 7 6 5 4
5 5 17 19 26 21 22 22 16 13 15 19 25 25 18 21 10 21 22 22 20 19 15 18 19 19 18 16 22 19 15 14 9 6 5 3 5 5 7 6 7 6 6 5
6 9 16 17 20 27 26 22 23 18 19 18 19 21 18 17 6 7 18 22 22 19 17 16 14 16 17 21 18 16 15 12 9 6 5 4 5 9 10 7 7 7 6 4
5 7 8 6 9 25 25 20 20 15 17 20 21 25 16 22 14 10 16 14 16 17 16 14 14 23 20 18 15 16 15 15 11 9 8 9 11 11 11 10 11 9 8 7
14 4 4 9 6 18 20 15 20 17 9 10 15 18 22 23 20 18 17 16 15 18 20 21 20 19 20 17 16 15 16 14 9 9 10 11 12 12 11 9 9 8 8 6
4 4 6 10 17 17 24 18 26 13 19 12 11 8 22 19 23 25 18 15 16 18 18 18 18 19 18 18 17 16 15 14 12 12 12 13 12 10 9 10 9 8 7 7
6 3 5 2 5 10 12 26 28 17 15 18 12 5 13 22 23 18 22 17 16 16 18 18 18 19 19 18 17 17 15 14 13 13 12 10 9 9 9 8 8 7 5 6
7 4 8 8 3 13 20 12 25 20 12 13 8 3 9 11 20 19 18 17 16 15 16 19 19 20 19 17 16 15 14 13 12 12 11 10 9 8 7 6 6 5 4 4
1 5 14 15 15 23 10 12 18 23 17 2 6 15 11 11 15 19 19 21 21 19 18 19 20 18 18 15 15 15 13 13 11 12 11 10 9 9 8 8 7 7 7 7
1 5 6 9 17 13 19 22 21 19 14 6 4 18 15 14 16 18 18 21 21 19 19 20 20 20 17 16 14 13 12 12 11 11 10 9 9 8 8 9 10 9 11 10
3 4 4 3 15 16 7 18 20 20 21 3 3 11 20 16 16 17 21 20 22 20 19 19 18 17 15 14 12 13 12 11 11 11 11 11 9 10 10 10 9 9 8 8
4 3 4 2 9 9 12 9 21 16 18 17 20 16 18 18 18 17 16 21 20 20 19 17 17 15 14 13 12 12 12 12 12 12 12 11 11 11 10 10 10 9 9 8
11 3 3 1 3 3 6 15 15 18 13 18 21 20 24 25 26 18 16 18 19 19 17 16 14 13 13 12 12 12 13 12 13 13 12 12 12 11 11 11 10 9 7 7
12 7 5 6 4 4 17 26 28 15 8 17 21 20 22 22 20 11 15 19 19 18 16 15 15 13 13 12 12 12 13 12 13 13 12 12 12 12 11 10 9 9 8 8
5 3 3 4 2 4 11 21 23 2 8 11 22 18 16 15 11 17 18 19 18 16 17 16 14 13 13 12 12 13 12 13 12 12 11 11 10 11 10 9 8 8 9 8
5 7 5 4 3 4 16 7 3 13 20 15 15 22 24 19 19 18 19 18 17 17 16 15 13 13 13 12 12 12 12 12 12 10 11 11 11 10 9 10 9 11 9 9
5 8 5 5 3 5 12 21 19 23 20 17 19 20 24 20 20 18 16 15 15 14 13 14 14 15 13 12 11 12 12 11 9 10 10 10 11 11 11 11 11 9 10 8
9 16 6 7 12 17 17 21 21 23 24 22 21 22 20 18 17 16 14 13 13 13 14 13 14 14 12 12 12 11 11 9 9 9 10 9 10 10 10 8 8 9 9 9
5 12 11 5 10 14 18 21 23 25 27 24 21 20 20 18 15 13 13 13 13 13 13 12 12 12 12 11 12 12 11 10 9 9 9 8 6 9 10 10 8 8 9 8
7 5 5 3 7 15 14 19 24 26 26 25 28 22 14 15 17 11 11 13 13 14 13 12 12 12 11 10 11 13 12 11 9 8 7 3 4 6 7 6 6 9 7 8
Wind_Direction
225 228 230 222 225 232 235 234 222 238 221 222 226 225 226 232 230 217 210 212 211 233 210 206 222 216 181 156 133 134 131 146 152 152 157 167 208 166 226 127 117 147 173 186
238 209 230 240 233 234 239 245 245 231 218 236 219 229 216 220 235 223 206 209 216 222 222 213 200 217 182 135 119 136 128 137 149 156 158 154 197 182 121 83 150 180 191 196
246 219 218 231 239 239 230 234 237 244 226 221 231 221 209 213 232 223 214 227 210 211 216 211 199 204 160 131 132 137 191 158 170 152 165 174 150 140 167 186 145 173 195 183
255 244 230 214 223 236 232 219 235 237 245 237 209 222 199 199 224 235 220 206 215 203 206 206 182 184 152 144 155 164 196 188 166 139 188 172 161 165 189 165 164 146 139 344
243 252 248 255 235 219 238 231 214 239 240 249 202 214 226 192 228 218 211 197 208 214 195 203 168 163 160 148 151 165 151 156 158 156 165 167 181 187 178 158 132 117 135 39
262 262 240 291 254 246 218 237 239 218 235 242 240 198 213 231 211 215 211 192 199 195 205 201 156 159 170 157 144 139 148 146 146 156 179 196 205 203 138 141 141 143 132 145
282 264 250 221 238 261 252 205 205 216 209 220 235 232 213 206 234 206 206 198 186 200 190 193 174 164 168 167 138 125 132 132 146 162 185 205 185 97 98 116 126 140 114 127
234 239 217 219 238 207 235 220 213 183 201 200 224 218 211 231 304 200 192 185 179 192 186 185 196 162 164 171 124 128 134 133 146 149 168 121 104 104 80 55 104 103 100 84
291 216 334 263 254 234 197 232 203 209 203 211 212 223 227 243 83 48 178 168 171 178 189 186 186 166 121 109 115 126 129 125 113 107 84 88 64 85 93 83 84 80 100 120
317 290 186 306 298 257 237 208 193 224 222 200 203 205 210 220 165 143 64 121 161 169 183 172 113 99 101 104 109 107 105 101 90 86 82 78 80 78 71 68 67 64 52 53
331 305 111 5 255 234 221 233 200 214 193 234 194 200 207 204 161 116 85 74 61 70 84 91 96 99 100 107 111 111 106 102 95 89 86 85 77 74 72 73 72 66 53 37
356 293 259 225 236 265 237 179 252 204 200 261 265 140 352 204 123 110 105 97 93 91 98 103 107 109 112 108 113 104 96 94 99 86 83 79 80 81 79 73 63 51 48 35
356 290 290 196 332 283 266 164 220 215 215 221 232 92 20 77 88 100 109 103 96 100 101 107 109 105 107 103 100 95 99 100 98 94 94 88 86 83 84 80 67 58 46 43
210 252 258 297 337 276 196 236 210 227 217 243 248 140 98 71 112 112 103 98 98 106 105 103 104 99 96 95 97 105 106 104 105 106 100 94 89 89 84 80 75 68 65 58
10 269 286 266 266 265 170 185 232 219 223 204 193 156 129 112 121 114 110 109 108 106 103 100 98 95 93 99 102 99 100 99 102 98 95 93 81 69 69 68 60 45 39 29
281 273 290 255 221 214 167 204 222 229 89 292 146 118 118 111 116 104 101 105 106 105 102 97 92 91 94 90 93 98 106 103 102 98 96 87 85 77 60 55 48 40 33 31
247 293 280 173 174 189 169 197 210 209 147 127 76 118 120 116 108 106 106 103 105 106 99 98 97 94 93 92 93 93 91 91 88 84 81 77 71 64 56 54 49 40 45 27
256 231 269 38 134 157 205 222 97 68 79 101 110 126 116 107 95 92 99 105 101 99 96 94 91 93 96 98 97 97 92 88 82 76 74 67 67 62 56 55 48 33 36 31
194 291 308 98 36 93 202 101 98 110 91 106 105 104 102 101 92 75 91 94 98 98 98 93 95 91 93 92 88 87 82 79 76 70 64 64 59 59 52 47 42 29 22 30
189 226 302 172 182 116 101 111 118 116 73 123 109 115 117 112 93 102 98 95 94 92 96 96 90 85 81 77 79 80 77 76 72 68 62 58 65 58 53 43 37 30 10 26
342 358 342 7 73 83 75 145 160 131 151 142 128 121 103 92 89 111 103 96 99 100 98 94 91 86 79 75 76 75 73 70 68 66 66 54 53 68 48 43 41 29 32 30
327 318 32 21 49 29 342 312 53 118 127 122 104 110 106 103 97 94 100 102 102 104 96 91 87 80 78 78 74 73 75 69 68 67 67 58 57 51 46 40 28 35 19 33
15 343 348 11 10 302 36 89 118 125 109 112 111 114 113 112 110 114 112 111 102 104 105 95 88 83 73 69 76 77 59 71 75 74 70 70 61 52 49 46 33 29 23 28
336 11 23 10 332 72 81 91 89 104 108 111 114 111 106 109 119 113 115 113 108 100 94 91 87 85 82 80 82 79 79 74 73 70 62 64 71 66 52 47 50 39 28 18
340 309 330 359 1 52 53 94 105 104 106 107 102 106 114 121 113 114 113 110 101 91 88 89 87 86 86 86 83 77 69 72 71 63 61 56 60 91 75 61 43 55 53 37
334 331 358 330 331 78 66 88 104 109 110 113 112 105 97 100 105 105 96 93 97 97 96 92 92 89 83 77 81 93 79 70 66 58 59 33 68 72 81 77 85 76 67 53